N4322X KPWM-KBOS

Flight info

Callsign N4322X
Flight time 0h 57m
Altitude 4000
Route ENE PEASE STEVO LWRNC
Aircraft P28A/L-SBGRY/EB1

Departure

Time 2026-05-07 19:08
Airport Portland International Jetport (KPWM)

Arrival

Time 2026-05-07 20:06
Airport Boston Logan International Airport (KBOS)
Time Latitude Longitude Altitude Speed Heading
2026-05-07 18:52 43.65279 -70.30898 52 ft 0 kts 179°
2026-05-07 19:02 43.65277 -70.30898 52 ft 3 kts 181°
2026-05-07 19:02 43.65200 -70.30817 48 ft 16 kts 116°
2026-05-07 19:02 43.65123 -70.30730 47 ft 12 kts 162°
2026-05-07 19:02 43.65049 -70.30720 48 ft 9 kts 179°
2026-05-07 19:03 43.64961 -70.30715 48 ft 15 kts 179°
2026-05-07 19:03 43.64919 -70.30712 48 ft 0 kts 180°
2026-05-07 19:03 43.64872 -70.30714 48 ft 22 kts 187°
2026-05-07 19:03 43.64641 -70.30694 48 ft 27 kts 160°
2026-05-07 19:04 43.64563 -70.30625 46 ft 17 kts 94°
2026-05-07 19:04 43.64554 -70.30501 43 ft 11 kts 96°
2026-05-07 19:04 43.64584 -70.30317 37 ft 24 kts 83°
2026-05-07 19:04 43.64576 -70.30054 28 ft 27 kts 94°
2026-05-07 19:05 43.64559 -70.29939 24 ft 4 kts 134°
2026-05-07 19:05 43.64501 -70.29916 25 ft 1 kts 178°
2026-05-07 19:05 43.64500 -70.29916 25 ft 0 kts 177°
2026-05-07 19:06 43.64487 -70.29916 25 ft 13 kts 179°
2026-05-07 19:07 43.64408 -70.29976 28 ft 10 kts 275°
2026-05-07 19:07 43.64416 -70.30094 32 ft 32 kts 276°
2026-05-07 19:07 43.64453 -70.30597 60 ft 66 kts 274°
2026-05-07 19:07 43.64492 -70.31147 348 ft 54 kts 266°
2026-05-07 19:08 43.64515 -70.31772 429 ft 69 kts 276°
2026-05-07 19:08 43.64541 -70.32424 620 ft 69 kts 272°
2026-05-07 19:08 43.64554 -70.33107 820 ft 68 kts 270°
2026-05-07 19:08 43.64472 -70.33720 1051 ft 65 kts 257°
2026-05-07 19:09 43.64378 -70.34359 1176 ft 70 kts 270°
2026-05-07 19:09 43.64410 -70.35070 1303 ft 76 kts 276°
2026-05-07 19:09 43.64464 -70.35812 1434 ft 80 kts 277°
2026-05-07 19:09 43.64520 -70.36598 1561 ft 84 kts 277°
2026-05-07 19:10 43.64570 -70.37403 1687 ft 85 kts 276°
2026-05-07 19:10 43.64615 -70.38214 1806 ft 87 kts 276°
2026-05-07 19:10 43.64670 -70.39052 1931 ft 88 kts 277°
2026-05-07 19:10 43.64723 -70.39891 2054 ft 88 kts 276°
2026-05-07 19:11 43.64774 -70.40729 2176 ft 88 kts 276°
2026-05-07 19:11 43.64827 -70.41571 2294 ft 87 kts 277°
2026-05-07 19:11 43.64879 -70.42400 2416 ft 87 kts 277°
2026-05-07 19:11 43.64930 -70.43235 2537 ft 87 kts 277°
2026-05-07 19:12 43.64983 -70.44075 2652 ft 87 kts 277°
2026-05-07 19:12 43.65036 -70.44906 2772 ft 87 kts 276°
2026-05-07 19:12 43.65090 -70.45737 2888 ft 88 kts 277°
2026-05-07 19:12 43.65140 -70.46580 3014 ft 88 kts 277°
2026-05-07 19:13 43.65187 -70.47413 3140 ft 88 kts 277°
2026-05-07 19:13 43.65232 -70.48255 3264 ft 88 kts 277°
2026-05-07 19:13 43.65280 -70.49112 3388 ft 89 kts 277°
2026-05-07 19:13 43.65326 -70.49962 3509 ft 88 kts 277°
2026-05-07 19:14 43.65370 -70.50798 3626 ft 88 kts 277°
2026-05-07 19:14 43.65417 -70.51649 3747 ft 88 kts 277°
2026-05-07 19:14 43.65459 -70.52490 3867 ft 89 kts 275°
2026-05-07 19:14 43.65486 -70.53332 3976 ft 89 kts 275°
2026-05-07 19:15 43.65491 -70.54239 4004 ft 98 kts 265°
2026-05-07 19:15 43.65068 -70.55019 4004 ft 113 kts 220°
2026-05-07 19:15 43.64262 -70.55241 4005 ft 122 kts 192°
2026-05-07 19:15 43.63458 -70.55524 4000 ft 119 kts 205°
2026-05-07 19:16 43.62663 -70.55825 3997 ft 117 kts 204°
2026-05-07 19:16 43.61866 -70.56091 4000 ft 118 kts 202°
2026-05-07 19:16 43.61052 -70.56335 4007 ft 119 kts 201°
2026-05-07 19:16 43.60238 -70.56569 4005 ft 120 kts 200°
2026-05-07 19:17 43.59414 -70.56799 4008 ft 121 kts 200°
2026-05-07 19:17 43.58577 -70.57025 4010 ft 121 kts 200°
2026-05-07 19:17 43.57746 -70.57253 4010 ft 122 kts 199°
2026-05-07 19:17 43.56917 -70.57479 4008 ft 122 kts 199°
2026-05-07 19:18 43.56074 -70.57707 4002 ft 122 kts 199°
2026-05-07 19:18 43.55251 -70.57928 4008 ft 121 kts 200°
2026-05-07 19:18 43.54413 -70.58155 4007 ft 122 kts 200°
2026-05-07 19:18 43.53584 -70.58380 4009 ft 121 kts 199°
2026-05-07 19:19 43.52752 -70.58604 4009 ft 121 kts 200°
2026-05-07 19:19 43.51917 -70.58829 4011 ft 121 kts 200°
2026-05-07 19:19 43.51092 -70.59053 4010 ft 121 kts 200°
2026-05-07 19:19 43.50253 -70.59281 4014 ft 122 kts 200°
2026-05-07 19:20 43.49414 -70.59506 4012 ft 123 kts 200°
2026-05-07 19:20 43.48581 -70.59731 4010 ft 123 kts 199°
2026-05-07 19:20 43.47744 -70.59956 4015 ft 122 kts 200°
2026-05-07 19:20 43.46902 -70.60184 4012 ft 122 kts 200°
2026-05-07 19:21 43.46067 -70.60409 4010 ft 122 kts 200°
2026-05-07 19:21 43.45231 -70.60633 4008 ft 122 kts 200°
2026-05-07 19:21 43.44397 -70.60860 4009 ft 122 kts 200°
2026-05-07 19:21 43.43562 -70.61084 4010 ft 122 kts 200°
2026-05-07 19:22 43.42739 -70.61320 4006 ft 120 kts 205°
2026-05-07 19:22 43.41973 -70.61747 4009 ft 117 kts 212°
2026-05-07 19:22 43.41224 -70.62219 4009 ft 117 kts 214°
2026-05-07 19:22 43.40493 -70.62688 4006 ft 117 kts 214°
2026-05-07 19:23 43.39742 -70.63170 4010 ft 117 kts 214°
2026-05-07 19:23 43.39000 -70.63648 3986 ft 119 kts 215°
2026-05-07 19:23 43.38203 -70.64168 3795 ft 129 kts 214°
2026-05-07 19:23 43.37409 -70.64679 3768 ft 124 kts 213°
2026-05-07 19:24 43.36633 -70.65173 3760 ft 120 kts 213°
2026-05-07 19:24 43.35875 -70.65657 3765 ft 118 kts 214°
2026-05-07 19:24 43.35133 -70.66134 3764 ft 117 kts 214°
2026-05-07 19:24 43.34448 -70.66566 3930 ft 103 kts 213°
2026-05-07 19:25 43.33789 -70.66987 3967 ft 106 kts 215°
2026-05-07 19:25 43.33120 -70.67417 3998 ft 108 kts 214°
2026-05-07 19:25 43.32434 -70.67860 4000 ft 111 kts 214°
2026-05-07 19:25 43.31726 -70.68319 4002 ft 113 kts 214°
2026-05-07 19:26 43.31004 -70.68782 4005 ft 115 kts 213°
2026-05-07 19:26 43.30271 -70.69255 4005 ft 116 kts 213°
2026-05-07 19:26 43.29541 -70.69724 4008 ft 116 kts 214°
2026-05-07 19:26 43.28815 -70.70187 4009 ft 116 kts 214°
2026-05-07 19:27 43.28079 -70.70661 4011 ft 117 kts 214°
2026-05-07 19:27 43.27336 -70.71135 4012 ft 116 kts 213°
2026-05-07 19:27 43.26601 -70.71608 4011 ft 117 kts 213°
2026-05-07 19:27 43.25869 -70.72075 4013 ft 116 kts 214°
2026-05-07 19:28 43.25136 -70.72546 4015 ft 116 kts 213°
2026-05-07 19:28 43.24393 -70.73019 4016 ft 116 kts 214°
2026-05-07 19:28 43.23656 -70.73493 4008 ft 116 kts 213°
2026-05-07 19:28 43.22930 -70.73955 4014 ft 116 kts 213°
2026-05-07 19:29 43.22195 -70.74425 4011 ft 116 kts 214°
2026-05-07 19:29 43.21463 -70.74891 4013 ft 116 kts 214°
2026-05-07 19:29 43.20720 -70.75369 4011 ft 116 kts 214°
2026-05-07 19:29 43.19986 -70.75837 4010 ft 116 kts 214°
2026-05-07 19:30 43.19256 -70.76305 4013 ft 116 kts 214°
2026-05-07 19:30 43.18520 -70.76774 4015 ft 117 kts 214°
2026-05-07 19:30 43.17779 -70.77247 4014 ft 117 kts 214°
2026-05-07 19:30 43.17032 -70.77724 4011 ft 117 kts 213°
2026-05-07 19:31 43.16301 -70.78191 4012 ft 117 kts 214°
2026-05-07 19:31 43.15560 -70.78664 4012 ft 117 kts 213°
2026-05-07 19:31 43.14819 -70.79135 4011 ft 117 kts 213°
2026-05-07 19:31 43.14085 -70.79604 4015 ft 117 kts 213°
2026-05-07 19:32 43.13345 -70.80075 4013 ft 117 kts 213°
2026-05-07 19:32 43.12606 -70.80546 4015 ft 117 kts 213°
2026-05-07 19:32 43.11865 -70.81020 4012 ft 118 kts 213°
2026-05-07 19:32 43.11114 -70.81496 4013 ft 118 kts 214°
2026-05-07 19:33 43.10366 -70.81976 4017 ft 118 kts 213°
2026-05-07 19:33 43.09616 -70.82453 4014 ft 118 kts 213°
2026-05-07 19:33 43.08872 -70.82925 4011 ft 118 kts 214°
2026-05-07 19:33 43.08112 -70.83410 4011 ft 118 kts 214°
2026-05-07 19:34 43.07370 -70.83892 4015 ft 117 kts 213°
2026-05-07 19:34 43.06636 -70.84371 4014 ft 117 kts 213°
2026-05-07 19:34 43.05893 -70.84855 4014 ft 117 kts 214°
2026-05-07 19:34 43.05152 -70.85337 4018 ft 117 kts 213°
2026-05-07 19:35 43.04410 -70.85819 4015 ft 118 kts 213°
2026-05-07 19:35 43.03671 -70.86297 4013 ft 118 kts 214°
2026-05-07 19:35 43.02923 -70.86784 4013 ft 118 kts 213°
2026-05-07 19:35 43.02176 -70.87268 4015 ft 118 kts 214°
2026-05-07 19:36 43.01424 -70.87758 3985 ft 120 kts 214°
2026-05-07 19:36 43.00668 -70.88251 3973 ft 120 kts 214°
2026-05-07 19:36 42.99920 -70.88734 3971 ft 119 kts 213°
2026-05-07 19:36 42.99173 -70.89220 3969 ft 119 kts 213°
2026-05-07 19:37 42.98422 -70.89706 3966 ft 118 kts 213°
2026-05-07 19:37 42.97679 -70.90186 3968 ft 118 kts 213°
2026-05-07 19:37 42.96943 -70.90662 3967 ft 118 kts 213°
2026-05-07 19:37 42.96191 -70.91147 3969 ft 118 kts 214°
2026-05-07 19:38 42.95453 -70.91626 3970 ft 117 kts 214°
2026-05-07 19:38 42.94716 -70.92103 3974 ft 118 kts 213°
2026-05-07 19:38 42.93972 -70.92583 3980 ft 118 kts 213°
2026-05-07 19:38 42.93276 -70.93127 3983 ft 116 kts 220°
2026-05-07 19:39 42.92582 -70.93690 3984 ft 118 kts 212°
2026-05-07 19:39 42.91730 -70.93685 3990 ft 130 kts 165°
2026-05-07 19:39 42.90910 -70.93122 3989 ft 133 kts 153°
2026-05-07 19:39 42.90108 -70.92467 3989 ft 134 kts 152°
2026-05-07 19:40 42.89330 -70.91811 4071 ft 128 kts 151°
2026-05-07 19:40 42.88591 -70.91177 4179 ft 123 kts 150°
2026-05-07 19:40 42.87870 -70.90555 4293 ft 121 kts 150°
2026-05-07 19:40 42.87170 -70.89947 4405 ft 119 kts 150°
2026-05-07 19:41 42.86477 -70.89346 4522 ft 118 kts 152°
2026-05-07 19:41 42.85790 -70.88753 4637 ft 117 kts 150°
2026-05-07 19:41 42.85096 -70.88157 4760 ft 116 kts 150°
2026-05-07 19:41 42.84411 -70.87563 4877 ft 116 kts 150°
2026-05-07 19:42 42.83735 -70.86977 4994 ft 117 kts 150°
2026-05-07 19:42 42.83048 -70.86380 5118 ft 116 kts 151°
2026-05-07 19:42 42.82364 -70.85786 5239 ft 116 kts 150°
2026-05-07 19:42 42.81681 -70.85194 5357 ft 116 kts 150°
2026-05-07 19:43 42.80996 -70.84598 5480 ft 116 kts 151°
2026-05-07 19:43 42.80320 -70.84011 5600 ft 116 kts 151°
2026-05-07 19:43 42.79635 -70.83418 5724 ft 116 kts 151°
2026-05-07 19:43 42.78964 -70.82836 5843 ft 116 kts 151°
2026-05-07 19:44 42.78275 -70.82240 5960 ft 116 kts 151°
2026-05-07 19:44 42.77570 -70.81632 5989 ft 124 kts 150°
2026-05-07 19:44 42.76836 -70.81002 5991 ft 127 kts 151°
2026-05-07 19:44 42.76082 -70.80352 5991 ft 130 kts 150°
2026-05-07 19:45 42.75305 -70.79681 5989 ft 133 kts 150°
2026-05-07 19:45 42.74509 -70.78992 5986 ft 134 kts 150°
2026-05-07 19:45 42.73723 -70.78313 5985 ft 135 kts 150°
2026-05-07 19:45 42.72934 -70.77630 5987 ft 135 kts 150°
2026-05-07 19:46 42.72115 -70.76922 5989 ft 135 kts 151°
2026-05-07 19:46 42.71340 -70.76254 5986 ft 135 kts 151°
2026-05-07 19:46 42.70536 -70.75559 5985 ft 136 kts 150°
2026-05-07 19:46 42.69738 -70.74869 5989 ft 136 kts 151°
2026-05-07 19:47 42.68947 -70.74186 5991 ft 136 kts 151°
2026-05-07 19:47 42.68143 -70.73492 6003 ft 136 kts 150°
2026-05-07 19:47 42.67327 -70.72787 5988 ft 137 kts 151°
2026-05-07 19:47 42.66519 -70.72090 5995 ft 137 kts 151°
2026-05-07 19:48 42.65710 -70.71394 5980 ft 137 kts 150°
2026-05-07 19:48 42.64907 -70.70700 5976 ft 136 kts 151°
2026-05-07 19:48 42.64107 -70.70010 5982 ft 135 kts 150°
2026-05-07 19:48 42.63314 -70.69325 5983 ft 136 kts 150°
2026-05-07 19:49 42.62503 -70.68626 5986 ft 137 kts 150°
2026-05-07 19:49 42.61704 -70.67939 5990 ft 137 kts 150°
2026-05-07 19:49 42.60892 -70.67240 5991 ft 137 kts 151°
2026-05-07 19:49 42.60083 -70.66543 5985 ft 137 kts 150°
2026-05-07 19:50 42.59271 -70.65845 5982 ft 137 kts 150°
2026-05-07 19:50 42.58471 -70.65157 5983 ft 136 kts 150°
2026-05-07 19:50 42.57671 -70.64467 5979 ft 136 kts 150°
2026-05-07 19:50 42.56884 -70.63790 5984 ft 134 kts 150°
2026-05-07 19:51 42.56099 -70.63114 5991 ft 135 kts 150°
2026-05-07 19:51 42.55294 -70.62425 6008 ft 137 kts 150°
2026-05-07 19:51 42.54487 -70.61731 5994 ft 138 kts 150°
2026-05-07 19:51 42.53678 -70.61036 5987 ft 136 kts 151°
2026-05-07 19:52 42.52877 -70.60349 5990 ft 136 kts 151°
2026-05-07 19:52 42.52076 -70.59661 6000 ft 137 kts 150°
2026-05-07 19:52 42.51262 -70.58964 5999 ft 137 kts 151°
2026-05-07 19:52 42.50458 -70.58274 6000 ft 138 kts 151°
2026-05-07 19:53 42.49649 -70.57581 6004 ft 138 kts 151°
2026-05-07 19:53 42.48825 -70.56875 5993 ft 139 kts 151°
2026-05-07 19:53 42.48018 -70.56182 5986 ft 137 kts 150°
2026-05-07 19:53 42.47203 -70.55482 6003 ft 137 kts 151°
2026-05-07 19:54 42.46395 -70.54791 5998 ft 138 kts 150°
2026-05-07 19:54 42.45575 -70.54119 5987 ft 137 kts 160°
2026-05-07 19:54 42.44672 -70.54051 5986 ft 125 kts 205°
2026-05-07 19:54 42.44046 -70.54723 5981 ft 110 kts 247°
2026-05-07 19:55 42.43726 -70.55650 5991 ft 107 kts 254°
2026-05-07 19:55 42.43483 -70.56602 5990 ft 106 kts 258°
2026-05-07 19:55 42.43274 -70.57571 5988 ft 106 kts 259°
2026-05-07 19:55 42.43085 -70.58538 5971 ft 107 kts 261°
2026-05-07 19:56 42.42901 -70.59547 5802 ft 116 kts 261°
2026-05-07 19:56 42.42706 -70.60639 5645 ft 120 kts 262°
2026-05-07 19:56 42.42515 -70.61729 5478 ft 121 kts 261°
2026-05-07 19:56 42.42319 -70.62858 5314 ft 122 kts 261°
2026-05-07 19:57 42.42124 -70.63978 5165 ft 123 kts 262°
2026-05-07 19:57 42.41928 -70.65102 5032 ft 123 kts 262°
2026-05-07 19:57 42.41736 -70.66226 4887 ft 123 kts 262°
2026-05-07 19:57 42.41541 -70.67355 4733 ft 123 kts 263°
2026-05-07 19:58 42.41345 -70.68479 4572 ft 124 kts 261°
2026-05-07 19:58 42.41142 -70.69599 4425 ft 123 kts 262°
2026-05-07 19:58 42.40944 -70.70731 4273 ft 123 kts 262°
2026-05-07 19:58 42.40749 -70.71854 4124 ft 122 kts 263°
2026-05-07 19:59 42.40558 -70.72974 3976 ft 123 kts 262°
2026-05-07 19:59 42.40363 -70.74109 3824 ft 123 kts 263°
2026-05-07 19:59 42.40170 -70.75232 3680 ft 124 kts 262°
2026-05-07 19:59 42.39973 -70.76382 3529 ft 125 kts 262°
2026-05-07 20:00 42.39758 -70.77522 3376 ft 125 kts 261°
2026-05-07 20:00 42.39550 -70.78660 3191 ft 127 kts 262°
2026-05-07 20:00 42.39344 -70.79825 2986 ft 127 kts 262°
2026-05-07 20:00 42.39144 -70.80966 2784 ft 124 kts 263°
2026-05-07 20:01 42.38954 -70.82070 2594 ft 117 kts 263°
2026-05-07 20:01 42.38773 -70.83126 2417 ft 113 kts 264°
2026-05-07 20:01 42.38597 -70.84145 2249 ft 110 kts 263°
2026-05-07 20:01 42.38422 -70.85140 2088 ft 108 kts 263°
2026-05-07 20:02 42.38250 -70.86133 1931 ft 108 kts 263°
2026-05-07 20:02 42.38075 -70.87118 1779 ft 107 kts 262°
2026-05-07 20:02 42.37904 -70.88099 1634 ft 107 kts 262°
2026-05-07 20:02 42.37733 -70.89069 1486 ft 107 kts 262°
2026-05-07 20:03 42.37561 -70.90052 1340 ft 106 kts 262°
2026-05-07 20:03 42.37389 -70.91021 1195 ft 105 kts 262°
2026-05-07 20:03 42.37223 -70.91972 1058 ft 105 kts 262°
2026-05-07 20:03 42.37055 -70.92918 914 ft 100 kts 263°
2026-05-07 20:04 42.36906 -70.93749 811 ft 87 kts 263°
2026-05-07 20:04 42.36769 -70.94532 677 ft 83 kts 263°
2026-05-07 20:04 42.36639 -70.95269 557 ft 81 kts 261°
2026-05-07 20:04 42.36504 -70.95987 494 ft 77 kts 259°
2026-05-07 20:05 42.36376 -70.96677 445 ft 76 kts 260°
2026-05-07 20:05 42.36255 -70.97405 324 ft 80 kts 259°
2026-05-07 20:05 42.36129 -70.98148 167 ft 81 kts 263°
2026-05-07 20:05 42.36015 -70.98795 58 ft 60 kts 259°
2026-05-07 20:06 42.35938 -70.99233 8 ft 34 kts 261°
2026-05-07 20:06 42.35896 -70.99499 8 ft 26 kts 260°
2026-05-07 20:06 42.35859 -70.99718 8 ft 23 kts 258°
2026-05-07 20:06 42.35820 -70.99937 8 ft 25 kts 253°
2026-05-07 20:07 42.35777 -71.00179 9 ft 28 kts 258°
2026-05-07 20:07 42.35757 -71.00413 11 ft 19 kts 276°
2026-05-07 20:07 42.35771 -71.00549 11 ft 10 kts 278°
2026-05-07 20:07 42.35780 -71.00639 11 ft 9 kts 279°
2026-05-07 20:08 42.35786 -71.00721 12 ft 8 kts 277°
2026-05-07 20:08 42.35794 -71.00796 14 ft 8 kts 279°
2026-05-07 20:08 42.35807 -71.00873 14 ft 9 kts 291°
2026-05-07 20:08 42.35814 -71.00979 14 ft 13 kts 280°
2026-05-07 20:09 42.35831 -71.01131 14 ft 20 kts 278°
2026-05-07 20:09 42.35852 -71.01326 17 ft 20 kts 278°
2026-05-07 20:09 42.35880 -71.01495 17 ft 15 kts 288°
2026-05-07 20:10 42.35925 -71.01627 15 ft 1 kts
2026-05-07 20:10 42.35981 -71.01606 15 ft 9 kts 355°